Location: Hermaringen
(48.5952°N, 10.2585°E)
Time: 21:44:23
(UTC+00:00)

Altair - Pass Details

Date: 18 February 2026
Orbit: 1502 x 1682 km, 47.2° (Epoch: 10 March)

Event Time Altitude Azimuth Distance (km) Brightness Sun altitude
Exits shadow 03:06:19 28° 176° (S) 2,554 8.4 -32.6°
Maximum altitude 03:09:42 35° 139° (SE) 2,252 8.4 -32.0°
Drops below altitude 10° 03:17:52 10° 78° (ENE) 3,732 10.4 -30.8°
Sets 03:21:17 0° 70° (ENE) 4,743 11.3 -30.2°
